Location: ???????
(55.4362°N, 38.1183°E)
Time: 22:59:21
(UTC+00:00)

CENTAUR R/B - Pass Details

Date: 17 June 2021
Orbit: 740 x 1447 km, 63.4° (Epoch: 17 July)

Event Time Altitude Azimuth Distance (km) Brightness Sun altitude
Rises 19:23:40 0° 242° (WSW) 3,548 5.5 -6.8°
Reaches altitude 10° 19:26:02 10° 245° (WSW) 2,695 4.9 -6.9°
Maximum altitude 19:32:24 70° 329° (NNW) 1,159 3.2 -7.4°
Drops below altitude 10° 19:40:06 10° 53° (NE) 3,225 5.4 -7.8°
Sets 19:43:10 0° 56° (ENE) 4,290 6.0 -8.0°
